Погода в Таразе

Погода в Таразе : погода сейчас, прогноз погоды и архив. Всё, что Вы хотите узнать о погоде в Таразе!

Поиск расширенной информации на нашем сайте:

Полезная информация: Тариф защита ddos.

Другие новости

Новости СМИ2

Главная страница сайта

Новости сайта

02.10.2013

Напоминаем, что на нашем новом сайте вы можете получить высокодетализированные прогнозы погоды по пунктам России, СНГ и мира (включающие важные для авиации метеовеличины, такие как направление и скорость ветра, видимость, явления погоды, количество и форма облачности, нижняя и верхняя граница облачности), а также ознакомиться с разнообразными материалами по авиационной метеорологии и подборкой полезных ссылок на эту тему.

Сайт Метеоцентр.Азия посвящён разработке технологий оптимизации авиаметеорологического обслуживания, включая проектирование и перспективное создание нескольких автоматизированных авиаметеорологических систем:
- система выпуска высокодетальных прогностических карт явлений погоды для нижнего воздушного пространства по России и ближнему зарубежью;
- система верификации прогнозов TAF (выпускаемых синоптиками официальных АМСГ РФ и ближнего зарубежья) и AUTOTAF (выпускаемых сайтом Метеоцентр.Азия) - выявление ошибок, онлайн-сопоставление с фактической погодой METAR, автоматическое внесение коррективов в прогнозы при резком отклонении фактической погоды от прогноза, подсчёт оправдываемости прогнозов по элементам и в целом;
- система обработки, анализа и отображения авиаметеорологической информации для применения провайдерами метеорологической информации.

Рекомендуем: http://olympvisa.ru/ как получить испанскую визу самостоятельно в москве.

Погода в Таразе - сегодня

Время (UTC), дата Ветер
(°,м/с) 
Видим.   Явления Облачность Т
(°С)
Тd
(°С)
f(%) Тe
(°С)
Pmin
(гПа)
dP
(гПа)
Po
(мм)
O2
(г/м3)
Тmin Tmax R s Состояние
почвы
15 25.02.17 210 (ЮЗ) 4000 м  слаб. снег{дождь}  10/10 600 м 
[Ns]
+1.9 -0 87 1030.7  2.9  714  285    +6.9     
18 25.02.17 тихо ()   10 км  {снег, дождь}  10/10 1000 м 
[Ns]
+0.3 -1.1 90 1033.4  715  288    +6.9     
21 25.02.17 тихо ()   10 км    4/4 1000 м 
[Sc diur, vesp]
-1.1 -2.3 92 -1  1032.6  -1.2  714  289           
00 26.02.17 210 (ЮЗ) 10 км    4/4 1000 м 
[Sc diur, vesp]
-3.6 -4.4 94 -3  1034  0.3  714  292           
03 26.02.17 180 (Ю) 20000 м    4/3 1000 м верхняя 
[Sc diur, vesp|Ci sp]
-3.8 -5 91 -3  1033.4  -0.3  714  292      0.0  мокрый или
старый снег
50-90% 
06 26.02.17 тихо ()   20000 м    9/0 средняя, верхняя 
[Ac lent|Ci sp]
+3.8 -2.1 65 +4  1030.2  -0.8  714  284  -4.7    0.0     
09 26.02.17 040 (СВ) 20000 м    3/0 средняя 
[Ac lent]
+5.5 +0 68 +5  1027.7  -1.9  712  281           
12 26.02.17 030 (СВ) 20000 м    8/6 1000 м средняя 
[Sc diur, vesp|Ac lent]
+6.5 -0.6 60 +6  1026.4  -0.9  711  280           
15 26.02.17 тихо ()   10 км    3/3 1000 м 
[Sc diur, vesp]
+0 -0.6 96 1026.7  -1.4  710  286    +7.1       
18 26.02.17 230 (ЮЗ) 10 км    ясно 
-1.2 -1.8 96 -1  1025.8  -1.2  710  287    +7.1       
21 26.02.17 210 (ЮЗ) 10 км    ясно 
-2 -4.1 85 -3  1024.3  -1.6  708  288           
00 27.02.17 210 (ЮЗ) 10 км    ясно 
-1 -4.9 75 1023  -1  708  287           
03 27.02.17 220 (ЮЗ) 20000 м    3/3 1000 м 
[Sc diur, vesp]
+0.6 -5.5 64 1023.2  0.7  708  285        990  мокрый или
старый снег
10-40% 
06 27.02.17 240 (ЮЗ) 20000 м    1/0 верхняя 
[Ci fib]
+9.2 -5.7 34 +9  1022.1  1.3  709  277  -2.8         
09 27.02.17 240 (ЮЗ) 20000 м    ясно 
+14.3 -5 26 +16  1021  0.2  709  272           
12 27.02.17 280 (З) 20000 м    ясно 
+12.3 -5 29 +14  1021.9  0.3  709  274           
15 27.02.17 тихо ()   10 км    ясно 
+3.2 -1.9 69 +3  1025.4  0.9  710  283    +15.7       
18 27.02.17 220 (ЮЗ) 10 км    ясно 
+2 -2.7 71 +3  1025.9  0.1  710  284    +15.7       
21 27.02.17 200 (Ю) 10 км    ясно 
+1.8 -3.6 67 +3  1026.1  0.2  710  285           
00 28.02.17 тихо ()   10 км    ясно 
+1.4 -4.9 63 +1  1025.7  -0.6  710  285           
03 28.02.17 тихо ()   20000 м    ясно 
+1.1 -4.5 66 +1  1026.3  0.5  710  285           
06 28.02.17 190 (Ю) 20000 м    ясно 
+12.4 +1.1 46 +14  1023.1  0.1  710  274  -0.1         
09 28.02.17 тихо ()   20000 м    ясно 
+14.6 -5 25 +15  1024.3  -0.9  710  272           
12 28.02.17 260 (З) 20000 м    ясно 
+11.2 +5.5 68 +11  1022.5  0.1  710  274           
15 28.02.17 330 (СЗ) 10 км    ясно 
+2.9 -2.2 69 +4  1025.9  0.9  710  283    +16.1       
Время (UTC), дата Ветер
(°,м/с) 
Видим.   Явления Облачность Т
(°С)
Тd
(°С)
f(%) Тe
(°С)
Pmin
(гПа)
dP
(гПа)
Po
(мм)
O2
(г/м3)
Тmin Tmax R s Состояние
почвы

Для получения пояснительной информации подведите курсор к названию столбца.

ПОГОДА в Таразе - архив

Всё, что Вы хотите узнать о погоде в Таразе - удобно и подробно!

Выберите нужную дату (начиная с 1 января 2015* года) и нажмите кнопку "Найти".
Будут отображены архивные сводки погоды по пункту Тараз, начиная с указанной даты.


Отображать данные в формате CSV (для использования в таблицах Excel)


Внимание! Наш архив погоды предназначен исключительно для личного некоммерческого использования в познавательных целях. Если Вам необходимы официальные справки о состоянии погоды (для производственных, юридических, коммерческих и т.п. целей), обращайтесь в органы Росгидромета.

*Примечание: данная дата относится к архиву по метеостанциям СССР (Россия, СНГ, Балтия).
Архив по метеостанциям Зарубежной Европы и Азии (кроме Китая) хранится 10 дней, по другим регионам земного шара (Китай, Африка, Америка, Австралия, Океания) - 1 день.

Тараз - район местоположения метеостанции


Название, широта, долгота, высота метеостанции:
Тараз (город) 42.9°ш. 71.4°д. 651 м над ур. моря [Казахстан]

Дополнительная информация

В oтличие oт бoльшинства пoгoдных сайтoв мы публикуем пoдрoбную метеoинфoрмацию в детальнoм прoфессиoнальнoм фoрмате.

Характеристики температуры и влажнoсти вoздуха измеряются на высoте 2 м в тени вдали oт зданий и деревьев.
Скoрoсть ветра измеряется на высoте 10 м (на урoвне рoста челoвека скoрoсть ветра ниже в 1.5-2 раза). Если метеoстанция нахoдится в гoрoде или в лесу, тo скoрoсть ветра занижена на 2-4 м/с пo сравнению с oткрытым местoм. Скoрoсть ветра над акватoриями крупных рек и oзёр, а также на вершинах хoлмoв на 2-5 м/с выше, чем в oбычных услoвиях.
Атмoсфернoе давление в разных тoчках местнoсти мoжет значительнo oтличаться oт давления на метеoстанции, в зависимoсти oт услoвий рельефа (при пoдъёме на 10 м давление пoнижается примернo на 1 мм рт.ст.).